Other Surface Observations
Issued by NWS

Home | Current Version | Previous Version | Text Only | Print | Product List | Glossary On
Versions: 1 2 3 4 5 6 7 8 9 10 11 12 13 14 15 16 17 18 19 20 21 22 23 24 25 26 27 28 29 30 31 32 33 34 35 36 37 38 39 40 41 42 43 44 45 46 47 48 49 50
000
SXUS52 KTAE 181019
OSOTAE
OSOTAE
North Florida/South Alabama/Southwest Georgia Weather Roundup
National Weather Service Tallahassee Florida
600 AM EDT FRI AUG 18 2017

Note: "fair" indicates few or no clouds below 12,000 feet with no
significant weather and/or obstructions to visibility.

!FLZ017-115-028-034-025-181100
...North Florida...

CITY           SKY/WX    TMP DP  RH WIND       PRES   REMARKS
TALLAHASSEE    CLEAR     79  77  94 NW6       29.99S
APALACHICOLA   CLEAR     80  80 100 CALM      29.99S
PERRY          CLEAR     78  76  94 CALM      30.00R
CROSS CITY     CLEAR     78  77  96 CALM      30.03S
JACKSONVILLE   CLEAR     76  76 100 CALM      29.98R
$$

!FLZ112-006-005-002-011-181100
...Florida Panhandle...

CITY           SKY/WX    TMP DP  RH WIND       PRES   REMARKS
MARIANNA       CLEAR     78  77  96 CALM      30.00R
BONIFAY        NOT AVBL
PANAMA CITY NW FAIR      79  77  94 NW5       30.00R
TYNDALL AFB    CLEAR     82  79  90 CALM      30.00R HX  91
TYND DRONE APT FAIR      83  78  87 N5        29.99S HX  92
DE FUNIAK SPR  FAIR      76  76  98 CALM      30.02R
EGLIN AFB      CLEAR     79  77  92 NW3       30.00R
DESTIN         CLEAR     85  78  80 W3        30.01R HX  96
HURLBURT       CLEAR     80  78  94 CALM      29.99R
CRESTVIEW      CLEAR     77  75  93 CALM      30.02S
PENSACOLA      CLEAR     82  77  84 NW6       30.01R HX  90
$$

!ALZ063-066-181100
...South Alabama...

CITY           SKY/WX    TMP DP  RH WIND       PRES   REMARKS
DOTHAN         CLEAR     78  77  96 W8        30.05R
OZARK CAIRNS   CLEAR     77  76  95 W3        30.01R
FT RUCKER HELI CLEAR     78  76  95 CALM      30.01R
RUCKER HELI 3  FAIR      78  76  93 NW6       30.01R
RUCKER HELI 2  FAIR      77  76  97 NW3       30.00R
FLORALA APT    NOT AVBL
ANDALUSIA        N/A     81  76  84 W6        30.01S
TROY           CLEAR     73  73 100 CALM      30.02R FOG
EUFALA         FAIR      74  73  97 W3        29.99S
MOBILE         CLEAR     77  75  93 CALM      30.02S
$$

!GAZ120>161-181100
...Southwest and South Central Georgia...

CITY           SKY/WX    TMP DP  RH WIND       PRES   REMARKS
THOMASVILLE    FAIR      79  79 100 NW5       30.01S
BAINBRIDGE     CLEAR     79  79 100 CALM      30.01R
MOODY AFB      CLEAR     78  76  91 CALM      29.98R
VALDOSTA       CLEAR     76  75  97 CALM      29.99R
MOULTRIE       CLEAR     77  73  88 CALM      30.01S
BLAKELY        CLEAR     75  72  88 CALM      30.01R
ALBANY         CLEAR     76  75  97 CALM      30.02R
TIFTON         FAIR      77  77 100 NW5       30.00S
FITZGERALD     FAIR      76  76 100 CALM      30.03R
CORDELE        FAIR      79  76  91 CALM      30.02R
AMERICUS       FAIR      73  73 100 NW5       30.02S
HOMERVILLE     FAIR      75  75 100 CALM      29.99S
$$

!GMZ750-755-770-775-181100
...Coastal and Buoy Obs...

STATION/POSITION TIME  TEMP    WIND        PRES    VSBY  WAVE
                       AIR SEA DIR/SP/G                  HT/PER
                 (UTC) (F)     (DEG/KT/KT) (MB)    (MI)  (FT/S)
KEATON BEACH     1000   83     350/  3/  4 1015.3R
CEDAR KEY        1000   85     300/  4/  6 1016.0R
C TOWER          1000   85                 1016.3R
APALACHICOLA BUO 0950   85 86  300/ 10/ 12 1015.2F         1/ 6
PANAMA CITY BUOY 0950   85 87  290/ 10/ 10 1015.6R         1/ 7
MOBILE BUOY      1000   85 87  280/ 10/ 14 1016.3
ORANGE BCH AL BU 0950   85 86  300/ 16/ 17 1015.4S         2/ 3
$$




USA.gov is the U.S. government's official web portal to all federal, state and local government web resources and services.